Glens Falls, NY

1:26 AM EDT on October 24, 2019 (GMT -0400)
Bennett Memorial

Weather History for KGFL - August, 2019

Change the Weather History Date:

Wednesday, August 28, 2019

  Actual Average Record
Temperature  
Mean Temperature 71 °F 65 °F  
Max Temperature 80 °F 77 °F 92 °F (1953)
Min Temperature 62 °F 53 °F 39 °F (1957)
Degree Days  
Heating Degree Days 0 2  
Month to date heating degree days 24 36  
Since 1 June heating degree days 94 147  
Since 1 July heating degree days 24 57  
Cooling Degree Days 6 2  
Month to date cooling degree days 96 98  
Year to date cooling degree days 392 318  
Since 1 June cooling degree days 383 306  
Growing Degree Days 21 (Base 50)    
Moisture  
Dew Point 61 °F    
Average Humidity 76    
Maximum Humidity 93    
Minimum Humidity 58    
Precipitation  
Precipitation 0.02 in 0.10 in 3.67 in (2011)
Month to date precipitation 2.85 3.38  
Year to date precipitation 28.79 25.51  
Sea Level Pressure  
Sea Level Pressure 29.88 in    
Wind  
Wind Speed 6 mph (SSW)    
Max Wind Speed 17 mph    
Max Gust Speed 21 mph    
Visibility 10 miles    
Events Rain    
T = Trace of Precipitation, MM = Missing Value Source: NWS Daily Summary

Daily Weather History Graph

Daily Weather History Graph

Search for Another Location

Airport or City:

Astronomy

Aug. 28, 2019 Rise Set
Actual Time 6:13 AM EDT 7:36 PM EDT
Civil Twilight 5:44 AM EDT 8:06 PM EDT
Nautical Twilight 5:08 AM EDT 8:42 PM EDT
Astronomical Twilight 4:30 AM EDT 9:19 PM EDT
Moon 3:37 AM EDT (8/28) 6:51 PM EDT (8/28)
Length of Visible Light 14h 22m
Length of Day
13h 23m
Waning Crescent, 5% of the Moon is Illuminated
Aug 28
Waning Crescent
Aug 30
New
Sep 5
First Quarter
Sep 14
Full
Sep 21
Last Quarter

Hourly Weather History & Observations

Time (EDT) Temp. Dew Point Humidity Pressure Visibility Wind Dir Wind Speed Gust Speed Precip Events Conditions
12:53 AM 66.0 °F 57.9 °F 75% 29.96 in 10.0 mi Calm Calm - N/A   Overcast
1:53 AM 66.0 °F 57.0 °F 73% 29.95 in 10.0 mi SSW 5.8 mph - N/A   Overcast
2:53 AM 66.0 °F 57.9 °F 75% 29.95 in 10.0 mi SSW 5.8 mph - N/A   Overcast
3:53 AM 64.9 °F 59.0 °F 81% 29.94 in 10.0 mi SSW 5.8 mph - 0.00 in   Overcast
4:53 AM 64.9 °F 59.0 °F 81% 29.93 in 10.0 mi SSW 4.6 mph - N/A   Overcast
5:53 AM 64.9 °F 59.0 °F 81% 29.92 in 10.0 mi SSW 5.8 mph - N/A   Overcast
6:53 AM 64.9 °F 59.0 °F 81% 29.92 in 10.0 mi SSW 3.5 mph - N/A   Overcast
7:53 AM 66.9 °F 59.0 °F 76% 29.92 in 10.0 mi South 10.4 mph - N/A   Mostly Cloudy
8:53 AM 69.1 °F 59.0 °F 70% 29.91 in 10.0 mi SSW 12.7 mph - N/A   Scattered Clouds
9:53 AM 72.0 °F 61.0 °F 68% 29.91 in 10.0 mi SSW 8.1 mph - N/A   Overcast
10:27 AM 72.0 °F 61.0 °F 68% 29.90 in 10.0 mi South 6.9 mph - N/A   Mostly Cloudy
10:53 AM 72.0 °F 61.0 °F 68% 29.89 in 10.0 mi SSW 10.4 mph - N/A   Mostly Cloudy
11:53 AM 73.0 °F 62.1 °F 68% 29.88 in 10.0 mi South 9.2 mph - N/A   Overcast
12:53 PM 75.0 °F 63.0 °F 66% 29.86 in 10.0 mi South 8.1 mph - N/A   Mostly Cloudy
1:53 PM 78.1 °F 63.0 °F 60% 29.83 in 10.0 mi SSE 10.4 mph - N/A   Partly Cloudy
2:53 PM 78.1 °F 62.1 °F 58% 29.81 in 10.0 mi SSW 6.9 mph - N/A   Scattered Clouds
3:53 PM 78.1 °F 64.0 °F 62% 29.80 in 10.0 mi SW 4.6 mph - N/A   Overcast
4:53 PM 78.1 °F 64.9 °F 64% 29.78 in 10.0 mi West 3.5 mph - N/A   Overcast
5:53 PM 77.0 °F 64.9 °F 66% 29.79 in 10.0 mi West 5.8 mph - N/A   Overcast
6:53 PM 66.9 °F 61.0 °F 81% 29.83 in 9.0 mi NNW 11.5 mph - 0.00 in Rain Light Rain
7:53 PM 66.0 °F 61.0 °F 84% 29.83 in 10.0 mi Variable 4.6 mph - 0.02 in Rain Light Rain
8:53 PM 64.9 °F 62.1 °F 90% 29.83 in 10.0 mi NE 6.9 mph - 0.00 in   Overcast
9:53 PM 64.9 °F 61.0 °F 87% 29.84 in 10.0 mi West 3.5 mph - 0.00 in   Overcast
10:53 PM 64.0 °F 62.1 °F 93% 29.85 in 10.0 mi Calm Calm - N/A   Mostly Cloudy
11:53 PM 62.1 °F 61.0 °F 96% 29.86 in 10.0 mi Calm Calm - N/A   Partly Cloudy